• MPC Preparation (Info)

  • MPEC 2014-F12 : 2014 FE

    The following Minor Planet Electronic Circular may be linked-to from your own Web pages, but must not otherwise be redistributed electronically.

    A form allowing access to any MPEC is at the bottom of this page.


    Read MPEC 2014-F11 Read MPEC 2014-F13


    M.P.E.C. 2014-F12                                Issued 2014 Mar. 21, 22:46 UT
    
         The Minor Planet Electronic Circulars contain information on unusual
             minor planets and routine data on comets.  They are published
       on behalf of Commission 20 of the International Astronomical Union by the
              Minor Planet Center, Smithsonian Astrophysical Observatory,
                              Cambridge, MA 02138, U.S.A.
    
                 Prepared using the Tamkin Foundation Computer Network
    
                                  MPC@CFA.HARVARD.EDU
                URL https://www.minorplanetcenter.net/    ISSN 1523-6714
    
                                        2014 FE
    
    Observations:
         K14F00E* C2014 03 20.26562 12 06 04.54 -00 52 03.6          20.2 VqEF012G96
         K14F00E  C2014 03 20.28124 12 05 55.39 -00 52 24.8          19.9 VqEF012G96
         K14F00E  C2014 03 20.28907 12 05 50.83 -00 52 35.3          20.5 VqEF012G96
         K14F00E  C2014 03 20.35542 12 05 13.07 -00 54 01.2          21.8 VqEF012G96
         K14F00E  C2014 03 20.36229 12 05 09.31 -00 54 09.5          20.0 VqEF012G96
         K14F00E  C2014 03 20.36917 12 05 05.59 -00 54 18.0          20.2 VqEF012G96
         K14F00E  C2014 03 20.37604 12 05 01.86 -00 54 26.6          20.5 VqEF012G96
         K14F00E KC2014 03 20.39262 12 04 53.11 -00 54 44.7          20.2 RoEF012291
         K14F00E KC2014 03 20.39373 12 04 52.48 -00 54 46.2          19.9 RoEF012291
         K14F00E KC2014 03 21.45696 11 59 10.31 -01 10 22.5          20.5 RoEF012291
         K14F00E KC2014 03 21.45903 11 59 09.73 -01 10 24.0          21.0 RoEF012291
    
    Observer details:
    291 LPL/Spacewatch II.  Observer T. H. Bressi.  1.8-m f/2.7 reflector + CCD.
    G96 Mt. Lemmon Survey.  Observer R. A. Kowalski.  Measurers E. J. Christensen,
        A. R. Gibbs, A. D. Grauer, R. E. Hill, J. A. Johnson, R. A. Kowalski,
        S. M. Larson, F. C. Shelly.  1.5-m reflector + CCD.
    
    Orbital elements:
    2014 FE                                                  Earth MOID = 0.0007 AU
    Epoch 2014 May 23.0 TT = JDT 2456800.5                  MPC
    M  44.69287              (2000.0)            P               Q
    n   0.39245029     Peri.   88.66823     +0.03530196     -0.99937659
    a   1.8476212      Node   359.30821     +0.90128714     +0.03203357
    e   0.6741510      Incl.    2.15773     +0.43178150     +0.01484202
    P   2.51           H   27.7           G   0.15           U   8
    Residuals in seconds of arc
    140320 G96  0.5-  0.4+    140320 G96  0.2-  0.1+    140320 291  0.7-  0.1+
    140320 G96  0.4-  0.2+    140320 G96  0.4+  0.2+    140321 291  0.0   0.2+
    140320 G96  0.3-  0.1+    140320 G96  0.4+  0.0     140321 291  0.2-  0.0
    140320 G96  0.6-  0.2-    140320 291  0.1-  0.2+
    
    Ephemeris:
    2014 FE                  a,e,i = 1.85, 0.67, 2                   q = 0.6020
    Date    TT    R. A. (2000) Decl.     Delta      r     Elong.  Phase     V
    2014 02 19    23 37 18.5 +00 42 43   0.3247  0.7082    25.2   143.6    31.9
    ...
    2014 03 06    23 40 36.9 +01 53 52   0.1330  0.8622    11.7   166.5
    ...
    2014 03 14    23 30 22.7 +02 32 03   0.04113 0.9531     5.4   174.4
    ...
    2014 03 20    12 08 23.1 -00 42 25   0.02673 1.0224   176.9     3.0    20.2
    2014 03 21    12 01 19.7 -01 02 48   0.03796 1.0340   179.0     1.0    20.8
    2014 03 22    11 57 29.4 -01 13 47   0.04923 1.0455   178.2     1.7    21.5
    ...
    2014 03 28    11 50 08.5 -01 34 36   0.1177  1.1144   171.0     8.1    23.9
    ...
    2014 04 05    11 48 45.4 -01 43 14   0.2125  1.2051   163.0    14.1    25.5
    ...
    2014 04 20    11 52 22.4 -02 06 44   0.4054  1.3690   149.3    22.0    27.5
    
    A. U. Tomatic                (C) Copyright 2014 MPC           M.P.E.C. 2014-F12
    

    Read MPEC 2014-F11 Read MPEC 2014-F13


    MPEC number:

    Enter an MPEC number in one of the following forms:

    • 1997-B01 (the full form)
    • J97B01 (the packed version of the full form)
    • B01 (the abbreviated form)